Find Starlink 32471

NORAD ID: 61968 Int'l Des: 2024-210 Owner: SPXS Country: US Constellation: starlink operational
LEOCIRCULAR

現在のビュー

3D地球を読み込み中...

About Starlink 32471

Starlink 32471 (NORAD 61968) is a starlink constellation satellite (v2 mini) launched Nov 14, 2024 by SPXS of US. It operates in LEO, CIRCULAR orbit with a mass of 730.00 kg.

Starlink 32471について

説明を読み込み中...

次回通過

Passes for default location (London). Set your location on the main map for personalized predictions.

高度履歴

Loading altitude history...

軌道要素

1 61968U 24210K 26169.78195850 .00020806 00000-0 76340-3 0 9995
2 61968 43.0009 321.7396 0001559 274.8862 85.1812 15.27583163 90461
Epoch: Jun 18, 2026 • Age: 20 hours

現在のステータス

高度 484.2 km
速度 7.62 km/s
衛星直下点 -8.61°S, 22.02°E
打ち上げ日 Nov 14, 2024
運用期間 1.5 years
タイプ internet

技術仕様

分類 Payload
質量 730.00 kg
乾燥質量 700.00 kg
総質量 730.00 kg
長さ 0.30 m
直径 4.10 m
スパン 29.00 m
形状 Box + pan
製造者 SPXS
バスタイプ Starlink V2M
フェーズステータス In Orbit
所有者/国 SPXS/US

Most Searched